Weather in Lier

Norway     59°48′55″N   10°16′06″E
temp.,
°C
wind,
m/s
gust,
m/s
humid.,
%
clouds,
%
prec.,
mm/h
press.,
hPa
HPBL,
m
23 september, thu
thu2323:00+13ssw2273100 0.0 100655
02:00+10sw2284100 0.0 100322
05:00+11sw2384100 0.0 99970
08:00+11sw41061100 0.1 995761
11:00+12wsw4854100 0.0 992948
14:00+13wsw454898 0.0 9881295
17:00+14nw494734 0.0 9891732
20:00+11nw310524 0.0 994410
24 september, fri
fri2423:00+7w3769100 0.0 997193
02:00+5wnw2276100 0.0 100052
05:00+5nw227486 0.0 100055
08:00+5wsw117662 0.0 100113
11:00+9s2357100 0.0 1000572
14:00+9sse3666100 0.0 998683
17:00+11sw365514 0.0 996713
20:00+9sw226966 0.0 99667
25 september, sat
sat2523:00+6wsw228460 0.0 99627
02:00+5w229121 0.0 99733
05:00+5wnw238964 0.0 99951
08:00+5wnw238051 0.0 100268
11:00+13nw254713 0.0 1004541
14:00+16nnw233715 0.0 10071265
17:00+16n123839 0.0 10091095
20:00+9s11655 0.0 101210
26 september, sun
sun2623:00+8wsw007230 0.0 101510
02:00+7nw117641 0.0 101610
05:00+6nw118032 0.0 101810
08:00+7n1177100 0.0 101913
11:00+12ese1260100 0.0 1020341
14:00+15sse24548 0.0 1020864
17:00+15sse245870 0.0 1020700
20:00+9s1187100 0.0 102110
27 september, mon
mon2723:00+9ne1191100 0.0 102110
02:00+8ne119686 0.0 102212
05:00+8ene129542 0.0 102153
08:00+8ne1595100 0.0 1021283
11:00+10e3783100 0.0 1021653
14:00+11e1775100 0.1 1019624
17:00+13ese4958100 0.0 10181095
20:00+9e2694100 3.7 1018319